Wetterdaten: Freitag, 27.11.2015
Datum Zeit Temp. A. Feuchte A. Luftdruck Regen Wind Richtung Richtung Sonnenschein ET UV Solar Taupunkt Windchill Windben Empfang
27.11.2015 00:00 1,8 C 96 % 1020,3 hPa 0,0 l/m 1,7 km/h (1 Bft) S-SW 207 0 min 0,000 mm 0,0 UV-I 0 W/m 1,2 C 1,8 C 4,8 km/h (1 Bft) 100,00 %
27.11.2015 00:05 1,8 C 96 % 1020,4 hPa 0,0 l/m 2,8 km/h (1 Bft) S-SW 208 0 min 0,000 mm 0,0 UV-I 0 W/m 1,2 C 1,8 C 4,8 km/h (1 Bft) 100,00 %
27.11.2015 00:10 1,8 C 96 % 1020,3 hPa 0,0 l/m 2,4 km/h (1 Bft) S-SW 208 0 min 0,000 mm 0,0 UV-I 0 W/m 1,2 C 1,8 C 3,2 km/h (1 Bft) 98,33 %
27.11.2015 00:15 1,7 C 96 % 1020,3 hPa 0,0 l/m 2,2 km/h (1 Bft) S-SW 208 0 min 0,000 mm 0,0 UV-I 0 W/m 1,1 C 1,7 C 4,8 km/h (1 Bft) 100,00 %
27.11.2015 00:20 1,7 C 96 % 1020,4 hPa 0,0 l/m 3,7 km/h (1 Bft) S-SW 196 0 min 0,000 mm 0,0 UV-I 0 W/m 1,1 C 1,7 C 6,4 km/h (2 Bft) 100,00 %
27.11.2015 00:25 1,7 C 96 % 1020,4 hPa 0,0 l/m 4,1 km/h (1 Bft) S-SW 194 0 min 0,000 mm 0,0 UV-I 0 W/m 1,1 C 1,7 C 6,4 km/h (2 Bft) 99,11 %
27.11.2015 00:30 1,7 C 96 % 1020,5 hPa 0,0 l/m 3,3 km/h (1 Bft) S-SW 207 0 min 0,000 mm 0,0 UV-I 0 W/m 1,1 C 1,7 C 6,4 km/h (2 Bft) 99,17 %
27.11.2015 00:35 1,7 C 96 % 1020,4 hPa 0,0 l/m 3,2 km/h (1 Bft) SW 214 0 min 0,000 mm 0,0 UV-I 0 W/m 1,1 C 1,7 C 4,8 km/h (1 Bft) 98,33 %
27.11.2015 00:40 1,7 C 96 % 1020,5 hPa 0,0 l/m 3,5 km/h (1 Bft) SW 233 0 min 0,000 mm 0,0 UV-I 0 W/m 1,1 C 1,7 C 4,8 km/h (1 Bft) 99,13 %
27.11.2015 00:45 1,7 C 96 % 1020,4 hPa 0,0 l/m 4,0 km/h (1 Bft) S-SW 211 0 min 0,000 mm 0,0 UV-I 0 W/m 1,1 C 1,7 C 6,4 km/h (2 Bft) 98,11 %
27.11.2015 00:50 1,7 C 96 % 1020,4 hPa 0,0 l/m 3,2 km/h (1 Bft) S-SW 206 0 min 0,000 mm 0,0 UV-I 0 W/m 1,1 C 1,7 C 4,8 km/h (1 Bft) 96,21 %
27.11.2015 00:55 1,6 C 96 % 1020,4 hPa 0,0 l/m 3,6 km/h (1 Bft) SW 217 0 min 0,000 mm 0,0 UV-I 0 W/m 1,0 C 1,6 C 6,4 km/h (2 Bft) 96,61 %
27.11.2015 01:00 1,6 C 97 % 1020,5 hPa 0,0 l/m 4,3 km/h (1 Bft) S 186 0 min 0,000 mm 0,0 UV-I 0 W/m 1,2 C 1,6 C 6,4 km/h (2 Bft) 97,17 %
27.11.2015 01:05 1,6 C 97 % 1020,4 hPa 0,0 l/m 3,8 km/h (1 Bft) S 187 0 min 0,000 mm 0,0 UV-I 0 W/m 1,2 C 1,6 C 6,4 km/h (2 Bft) 96,75 %
27.11.2015 01:10 1,6 C 97 % 1020,5 hPa 0,0 l/m 3,0 km/h (1 Bft) S 186 0 min 0,000 mm 0,0 UV-I 0 W/m 1,2 C 1,6 C 4,8 km/h (1 Bft) 96,52 %
27.11.2015 01:15 1,6 C 97 % 1020,5 hPa 0,0 l/m 4,0 km/h (1 Bft) S-SW 194 0 min 0,000 mm 0,0 UV-I 0 W/m 1,2 C 1,6 C 6,4 km/h (2 Bft) 96,75 %
27.11.2015 01:20 1,6 C 97 % 1020,6 hPa 0,0 l/m 2,1 km/h (1 Bft) S-SW 192 0 min 0,000 mm 0,0 UV-I 0 W/m 1,2 C 1,6 C 4,8 km/h (1 Bft) 95,54 %
27.11.2015 01:25 1,6 C 97 % 1020,6 hPa 0,0 l/m 3,5 km/h (1 Bft) S-SW 194 0 min 0,000 mm 0,0 UV-I 0 W/m 1,2 C 1,6 C 4,8 km/h (1 Bft) 97,39 %
27.11.2015 01:30 1,6 C 97 % 1020,6 hPa 0,0 l/m 3,5 km/h (1 Bft) S-SW 194 0 min 0,000 mm 0,0 UV-I 0 W/m 1,2 C 1,6 C 4,8 km/h (1 Bft) 97,56 %
27.11.2015 01:35 1,6 C 96 % 1020,6 hPa 0,0 l/m 2,6 km/h (1 Bft) S 188 0 min 0,000 mm 0,0 UV-I 0 W/m 1,0 C 1,6 C 4,8 km/h (1 Bft) 100,00 %
27.11.2015 01:40 1,6 C 96 % 1020,6 hPa 0,0 l/m 4,1 km/h (1 Bft) S-SW 198 0 min 0,000 mm 0,0 UV-I 0 W/m 1,0 C 1,6 C 6,4 km/h (2 Bft) 99,06 %
27.11.2015 01:45 1,6 C 96 % 1020,6 hPa 0,0 l/m 5,1 km/h (1 Bft) S-SW 205 0 min 0,000 mm 0,0 UV-I 0 W/m 1,0 C 1,6 C 8,0 km/h (2 Bft) 100,00 %
27.11.2015 01:50 1,6 C 97 % 1020,6 hPa 0,0 l/m 4,8 km/h (1 Bft) SW 214 0 min 0,000 mm 0,0 UV-I 0 W/m 1,2 C 1,6 C 8,0 km/h (2 Bft) 99,13 %
27.11.2015 01:55 1,6 C 96 % 1020,6 hPa 0,0 l/m 5,5 km/h (1 Bft) S-SW 194 0 min 0,000 mm 0,0 UV-I 0 W/m 1,0 C 1,6 C 8,0 km/h (2 Bft) 100,00 %
27.11.2015 02:00 1,6 C 96 % 1020,6 hPa 0,0 l/m 3,3 km/h (1 Bft) S-SW 195 0 min 0,000 mm 0,0 UV-I 0 W/m 1,0 C 1,6 C 6,4 km/h (2 Bft) 99,17 %
27.11.2015 02:05 1,6 C 96 % 1020,6 hPa 0,0 l/m 4,4 km/h (1 Bft) S-SW 194 0 min 0,000 mm 0,0 UV-I 0 W/m 1,0 C 1,6 C 6,4 km/h (2 Bft) 100,00 %
27.11.2015 02:10 1,6 C 97 % 1020,7 hPa 0,0 l/m 6,0 km/h (2 Bft) S-SW 201 0 min 0,000 mm 0,0 UV-I 0 W/m 1,2 C 1,6 C 8,0 km/h (2 Bft) 96,67 %
27.11.2015 02:15 1,6 C 96 % 1020,7 hPa 0,0 l/m 4,8 km/h (1 Bft) S 182 0 min 0,000 mm 0,0 UV-I 0 W/m 1,0 C 1,6 C 8,0 km/h (2 Bft) 99,15 %
27.11.2015 02:20 1,7 C 96 % 1020,6 hPa 0,0 l/m 2,2 km/h (1 Bft) S 173 0 min 0,000 mm 0,0 UV-I 0 W/m 1,1 C 1,7 C 4,8 km/h (1 Bft) 99,10 %
27.11.2015 02:25 1,7 C 96 % 1020,6 hPa 0,0 l/m 3,6 km/h (1 Bft) S 183 0 min 0,000 mm 0,0 UV-I 0 W/m 1,1 C 1,7 C 6,4 km/h (2 Bft) 100,00 %
27.11.2015 02:30 1,7 C 96 % 1020,6 hPa 0,0 l/m 4,2 km/h (1 Bft) S-SW 202 0 min 0,000 mm 0,0 UV-I 0 W/m 1,1 C 1,7 C 6,4 km/h (2 Bft) 98,31 %
27.11.2015 02:35 1,7 C 96 % 1020,6 hPa 0,0 l/m 4,4 km/h (1 Bft) S-SW 205 0 min 0,000 mm 0,0 UV-I 0 W/m 1,1 C 1,7 C 8,0 km/h (2 Bft) 99,17 %
27.11.2015 02:40 1,7 C 96 % 1020,6 hPa 0,0 l/m 4,3 km/h (1 Bft) S 183 0 min 0,000 mm 0,0 UV-I 0 W/m 1,1 C 1,7 C 6,4 km/h (2 Bft) 100,00 %
27.11.2015 02:45 1,7 C 96 % 1020,6 hPa 0,0 l/m 4,1 km/h (1 Bft) S 185 0 min 0,000 mm 0,0 UV-I 0 W/m 1,1 C 1,7 C 6,4 km/h (2 Bft) 99,15 %
27.11.2015 02:50 1,7 C 96 % 1020,5 hPa 0,0 l/m 3,6 km/h (1 Bft) S-SW 209 0 min 0,000 mm 0,0 UV-I 0 W/m 1,1 C 1,7 C 6,4 km/h (2 Bft) 99,15 %
27.11.2015 02:55 1,7 C 96 % 1020,4 hPa 0,0 l/m 4,4 km/h (1 Bft) SW 214 0 min 0,000 mm 0,0 UV-I 0 W/m 1,1 C 1,7 C 6,4 km/h (2 Bft) 96,69 %
27.11.2015 03:00 1,7 C 96 % 1020,3 hPa 0,0 l/m 3,8 km/h (1 Bft) S-SW 200 0 min 0,000 mm 0,0 UV-I 0 W/m 1,1 C 1,7 C 8,0 km/h (2 Bft) 95,41 %
27.11.2015 03:05 1,7 C 96 % 1020,3 hPa 0,0 l/m 3,2 km/h (1 Bft) SW 234 0 min 0,000 mm 0,0 UV-I 0 W/m 1,1 C 1,7 C 4,8 km/h (1 Bft) 95,93 %
27.11.2015 03:10 1,7 C 96 % 1020,3 hPa 0,0 l/m 3,4 km/h (1 Bft) SW 236 0 min 0,000 mm 0,0 UV-I 0 W/m 1,1 C 1,7 C 6,4 km/h (2 Bft) 96,69 %
27.11.2015 03:15 1,6 C 96 % 1020,3 hPa 0,0 l/m 3,1 km/h (1 Bft) S 185 0 min 0,000 mm 0,0 UV-I 0 W/m 1,0 C 1,6 C 6,4 km/h (2 Bft) 97,37 %
27.11.2015 03:20 1,6 C 96 % 1020,4 hPa 0,0 l/m 3,5 km/h (1 Bft) S-SW 211 0 min 0,000 mm 0,0 UV-I 0 W/m 1,0 C 1,6 C 6,4 km/h (2 Bft) 97,32 %
27.11.2015 03:25 1,6 C 96 % 1020,3 hPa 0,0 l/m 2,5 km/h (1 Bft) SW 226 0 min 0,000 mm 0,0 UV-I 0 W/m 1,0 C 1,6 C 4,8 km/h (1 Bft) 96,69 %
27.11.2015 03:30 1,6 C 96 % 1020,3 hPa 0,0 l/m 2,3 km/h (1 Bft) SW 225 0 min 0,000 mm 0,0 UV-I 0 W/m 1,0 C 1,6 C 3,2 km/h (1 Bft) 100,00 %
27.11.2015 03:35 1,6 C 96 % 1020,2 hPa 0,0 l/m 2,8 km/h (1 Bft) S-SW 193 0 min 0,000 mm 0,0 UV-I 0 W/m 1,0 C 1,6 C 4,8 km/h (1 Bft) 97,32 %
27.11.2015 03:40 1,6 C 96 % 1020,2 hPa 0,0 l/m 3,2 km/h (1 Bft) S-SW 192 0 min 0,000 mm 0,0 UV-I 0 W/m 1,0 C 1,6 C 4,8 km/h (1 Bft) 99,12 %
27.11.2015 03:45 1,6 C 96 % 1020,2 hPa 0,0 l/m 2,5 km/h (1 Bft) S-SW 192 0 min 0,000 mm 0,0 UV-I 0 W/m 1,0 C 1,6 C 4,8 km/h (1 Bft) 99,13 %
27.11.2015 03:50 1,6 C 96 % 1020,1 hPa 0,0 l/m 5,6 km/h (1 Bft) S-SW 193 0 min 0,000 mm 0,0 UV-I 0 W/m 1,0 C 1,6 C 8,0 km/h (2 Bft) 99,21 %
27.11.2015 03:55 1,6 C 96 % 1020,2 hPa 0,0 l/m 4,9 km/h (1 Bft) S-SW 203 0 min 0,000 mm 0,0 UV-I 0 W/m 1,0 C 1,6 C 8,0 km/h (2 Bft) 98,25 %
27.11.2015 04:00 1,6 C 96 % 1020,2 hPa 0,0 l/m 4,6 km/h (1 Bft) S-SW 196 0 min 0,000 mm 0,0 UV-I 0 W/m 1,0 C 1,6 C 8,0 km/h (2 Bft) 100,00 %
27.11.2015 04:05 1,6 C 96 % 1020,1 hPa 0,0 l/m 3,7 km/h (1 Bft) S-SW 201 0 min 0,000 mm 0,0 UV-I 0 W/m 1,0 C 1,6 C 8,0 km/h (2 Bft) 98,98 %
27.11.2015 04:10 1,6 C 96 % 1020,1 hPa 0,0 l/m 4,0 km/h (1 Bft) S-SW 194 0 min 0,000 mm 0,0 UV-I 0 W/m 1,0 C 1,6 C 6,4 km/h (2 Bft) 98,37 %
27.11.2015 04:15 1,6 C 96 % 1020,0 hPa 0,0 l/m 4,2 km/h (1 Bft) S 175 0 min 0,000 mm 0,0 UV-I 0 W/m 1,0 C 1,6 C 8,0 km/h (2 Bft) 100,00 %
27.11.2015 04:20 1,7 C 96 % 1020,0 hPa 0,0 l/m 4,4 km/h (1 Bft) S 180 0 min 0,000 mm 0,0 UV-I 0 W/m 1,1 C 1,7 C 8,0 km/h (2 Bft) 98,29 %
27.11.2015 04:25 1,7 C 96 % 1020,1 hPa 0,0 l/m 3,7 km/h (1 Bft) S 178 0 min 0,000 mm 0,0 UV-I 0 W/m 1,1 C 1,7 C 6,4 km/h (2 Bft) 99,11 %
27.11.2015 04:30 1,7 C 96 % 1020,1 hPa 0,0 l/m 3,0 km/h (1 Bft) S-SW 194 0 min 0,000 mm 0,0 UV-I 0 W/m 1,1 C 1,7 C 6,4 km/h (2 Bft) 99,17 %
27.11.2015 04:35 1,6 C 96 % 1020,1 hPa 0,0 l/m 2,8 km/h (1 Bft) S-SW 194 0 min 0,000 mm 0,0 UV-I 0 W/m 1,0 C 1,6 C 4,8 km/h (1 Bft) 99,07 %
27.11.2015 04:40 1,6 C 96 % 1020,1 hPa 0,0 l/m 2,9 km/h (1 Bft) S-SW 194 0 min 0,000 mm 0,0 UV-I 0 W/m 1,0 C 1,6 C 4,8 km/h (1 Bft) 100,00 %
27.11.2015 04:45 1,6 C 96 % 1020,0 hPa 0,0 l/m 2,5 km/h (1 Bft) S-SW 194 0 min 0,000 mm 0,0 UV-I 0 W/m 1,0 C 1,6 C 4,8 km/h (1 Bft) 99,08 %
27.11.2015 04:50 1,6 C 96 % 1020,1 hPa 0,0 l/m 2,4 km/h (1 Bft) S-SW 203 0 min 0,000 mm 0,0 UV-I 0 W/m 1,0 C 1,6 C 3,2 km/h (1 Bft) 98,41 %
27.11.2015 04:55 1,6 C 96 % 1020,1 hPa 0,0 l/m 1,9 km/h (1 Bft) S-SW 203 0 min 0,000 mm 0,0 UV-I 0 W/m 1,0 C 1,6 C 3,2 km/h (1 Bft) 100,00 %
27.11.2015 05:00 1,6 C 96 % 1020,1 hPa 0,0 l/m 0,6 km/h (0 Bft) S-SW 203 0 min 0,000 mm 0,0 UV-I 0 W/m 1,0 C 1,6 C 1,6 km/h (1 Bft) 96,33 %
27.11.2015 05:05 1,5 C 96 % 1020,0 hPa 0,0 l/m 0,7 km/h (0 Bft) S-SW 203 0 min 0,000 mm 0,0 UV-I 0 W/m 0,9 C 1,5 C 3,2 km/h (1 Bft) 95,73 %
27.11.2015 05:10 1,4 C 96 % 1020,0 hPa 0,0 l/m 0,2 km/h (0 Bft) S-SW 203 0 min 0,000 mm 0,0 UV-I 0 W/m 0,8 C 1,4 C 1,6 km/h (1 Bft) 97,46 %
27.11.2015 05:15 1,3 C 96 % 1020,0 hPa 0,0 l/m 1,7 km/h (1 Bft) S-SW 203 0 min 0,000 mm 0,0 UV-I 0 W/m 0,7 C 1,3 C 3,2 km/h (1 Bft) 97,56 %
27.11.2015 05:20 1,1 C 96 % 1020,0 hPa 0,0 l/m 2,7 km/h (1 Bft) S-SW 203 0 min 0,000 mm 0,0 UV-I 0 W/m 0,5 C 1,1 C 3,2 km/h (1 Bft) 96,52 %
27.11.2015 05:25 1,1 C 97 % 1020,0 hPa 0,0 l/m 1,3 km/h (1 Bft) S-SW 203 0 min 0,000 mm 0,0 UV-I 0 W/m 0,7 C 1,1 C 3,2 km/h (1 Bft) 96,69 %
27.11.2015 05:30 1,1 C 97 % 1020,0 hPa 0,0 l/m 0,6 km/h (0 Bft) S-SW 203 0 min 0,000 mm 0,0 UV-I 0 W/m 0,7 C 1,1 C 1,6 km/h (1 Bft) 94,87 %
27.11.2015 05:35 1,1 C 97 % 1020,0 hPa 0,0 l/m 1,0 km/h (0 Bft) S-SW 203 0 min 0,000 mm 0,0 UV-I 0 W/m 0,7 C 1,1 C 1,6 km/h (1 Bft) 100,00 %
27.11.2015 05:40 1,2 C 97 % 1020,0 hPa 0,0 l/m 1,0 km/h (0 Bft) S-SW 203 0 min 0,000 mm 0,0 UV-I 0 W/m 0,8 C 1,2 C 1,6 km/h (1 Bft) 98,29 %
27.11.2015 05:45 1,3 C 97 % 1020,1 hPa 0,0 l/m 1,9 km/h (1 Bft) S-SW 203 0 min 0,000 mm 0,0 UV-I 0 W/m 0,9 C 1,3 C 3,2 km/h (1 Bft) 100,00 %
27.11.2015 05:50 1,2 C 97 % 1020,0 hPa 0,0 l/m 2,1 km/h (1 Bft) S-SW 203 0 min 0,000 mm 0,0 UV-I 0 W/m 0,8 C 1,2 C 3,2 km/h (1 Bft) 98,46 %
27.11.2015 05:55 1,2 C 97 % 1020,0 hPa 0,0 l/m 1,9 km/h (1 Bft) S-SW 203 0 min 0,000 mm 0,0 UV-I 0 W/m 0,8 C 1,2 C 3,2 km/h (1 Bft) 98,20 %
27.11.2015 06:00 1,2 C 97 % 1020,1 hPa 0,0 l/m 1,7 km/h (1 Bft) S-SW 203 0 min 0,000 mm 0,0 UV-I 0 W/m 0,8 C 1,2 C 3,2 km/h (1 Bft) 98,43 %
27.11.2015 06:05 1,2 C 97 % 1020,1 hPa 0,0 l/m 2,5 km/h (1 Bft) S-SW 203 0 min 0,000 mm 0,0 UV-I 0 W/m 0,8 C 1,2 C 4,8 km/h (1 Bft) 99,15 %
27.11.2015 06:10 1,2 C 97 % 1020,1 hPa 0,0 l/m 2,0 km/h (1 Bft) S-SW 203 0 min 0,000 mm 0,0 UV-I 0 W/m 0,8 C 1,2 C 3,2 km/h (1 Bft) 98,29 %
27.11.2015 06:15 1,2 C 98 % 1020,1 hPa 0,0 l/m 2,4 km/h (1 Bft) S-SW 203 0 min 0,000 mm 0,0 UV-I 0 W/m 0,9 C 1,2 C 3,2 km/h (1 Bft) 98,26 %
27.11.2015 06:20 1,3 C 98 % 1020,0 hPa 0,0 l/m 3,1 km/h (1 Bft) SW 225 0 min 0,000 mm 0,0 UV-I 0 W/m 1,0 C 1,3 C 4,8 km/h (1 Bft) 98,17 %
27.11.2015 06:25 1,3 C 97 % 1020,1 hPa 0,0 l/m 2,6 km/h (1 Bft) S-SW 209 0 min 0,000 mm 0,0 UV-I 0 W/m 0,9 C 1,3 C 4,8 km/h (1 Bft) 97,50 %
27.11.2015 06:30 1,3 C 97 % 1020,1 hPa 0,0 l/m 2,7 km/h (1 Bft) SW 221 0 min 0,000 mm 0,0 UV-I 0 W/m 0,9 C 1,3 C 4,8 km/h (1 Bft) 100,00 %
27.11.2015 06:35 1,3 C 97 % 1020,1 hPa 0,0 l/m 2,8 km/h (1 Bft) SW 221 0 min 0,000 mm 0,0 UV-I 0 W/m 0,9 C 1,3 C 4,8 km/h (1 Bft) 100,00 %
27.11.2015 06:40 1,3 C 97 % 1020,1 hPa 0,0 l/m 2,6 km/h (1 Bft) SW 221 0 min 0,000 mm 0,0 UV-I 0 W/m 0,9 C 1,3 C 4,8 km/h (1 Bft) 99,21 %
27.11.2015 06:45 1,4 C 97 % 1020,2 hPa 0,0 l/m 1,8 km/h (1 Bft) SW 221 0 min 0,000 mm 0,0 UV-I 0 W/m 1,0 C 1,4 C 3,2 km/h (1 Bft) 100,00 %
27.11.2015 06:50 1,4 C 97 % 1020,1 hPa 0,0 l/m 0,7 km/h (0 Bft) SW 221 0 min 0,000 mm 0,0 UV-I 0 W/m 1,0 C 1,4 C 3,2 km/h (1 Bft) 98,45 %
27.11.2015 06:55 1,4 C 97 % 1020,1 hPa 0,0 l/m 2,6 km/h (1 Bft) S 182 0 min 0,000 mm 0,0 UV-I 0 W/m 1,0 C 1,4 C 4,8 km/h (1 Bft) 100,00 %
27.11.2015 07:00 1,4 C 97 % 1020,1 hPa 0,0 l/m 1,9 km/h (1 Bft) S 182 0 min 0,000 mm 0,0 UV-I 0 W/m 1,0 C 1,4 C 3,2 km/h (1 Bft) 100,00 %
27.11.2015 07:05 1,4 C 97 % 1020,1 hPa 0,0 l/m 2,8 km/h (1 Bft) S 182 0 min 0,000 mm 0,0 UV-I 0 W/m 1,0 C 1,4 C 4,8 km/h (1 Bft) 94,78 %
27.11.2015 07:10 1,4 C 97 % 1020,1 hPa 0,0 l/m 1,8 km/h (1 Bft) S 182 0 min 0,000 mm 0,0 UV-I 0 W/m 1,0 C 1,4 C 3,2 km/h (1 Bft) 94,37 %
27.11.2015 07:20 1,2 C 96 % 1020,2 hPa 0,0 l/m 1,1 km/h (1 Bft) S 182 0 min 0,000 mm 0,0 UV-I 0 W/m 0,6 C 1,2 C 1,6 km/h (1 Bft) 96,81 %
27.11.2015 07:25 1,2 C 97 % 1020,1 hPa 0,0 l/m 0,2 km/h (0 Bft) S 182 0 min 0,000 mm 0,0 UV-I 0 W/m 0,8 C 1,2 C 1,6 km/h (1 Bft) 97,32 %
27.11.2015 07:30 1,2 C 97 % 1020,1 hPa 0,0 l/m 0,3 km/h (0 Bft) S 182 0 min 0,000 mm 0,0 UV-I 0 W/m 0,8 C 1,2 C 1,6 km/h (1 Bft) 94,92 %
27.11.2015 07:35 1,1 C 97 % 1020,1 hPa 0,0 l/m 0,5 km/h (0 Bft) S 182 0 min 0,000 mm 0,0 UV-I 0 W/m 0,7 C 1,1 C 1,6 km/h (1 Bft) 97,32 %
27.11.2015 07:40 1,1 C 97 % 1020,1 hPa 0,0 l/m 0,5 km/h (0 Bft) S 182 0 min 0,000 mm 0,0 UV-I 0 W/m 0,7 C 1,1 C 3,2 km/h (1 Bft) 99,19 %
27.11.2015 07:45 1,2 C 97 % 1020,1 hPa 0,0 l/m 0,4 km/h (0 Bft) S 182 0 min 0,000 mm 0,0 UV-I 5 W/m 0,8 C 1,2 C 1,6 km/h (1 Bft) 97,50 %
27.11.2015 07:50 1,1 C 97 % 1020,1 hPa 0,0 l/m 0,2 km/h (0 Bft) S 182 0 min 0,000 mm 0,0 UV-I 6 W/m 0,7 C 1,1 C 1,6 km/h (1 Bft) 99,13 %
27.11.2015 07:55 1,1 C 97 % 1020,1 hPa 0,0 l/m 0,3 km/h (0 Bft) S 182 0 min 0,000 mm 0,0 UV-I 5 W/m 0,7 C 1,1 C 1,6 km/h (1 Bft) 95,83 %
27.11.2015 08:00 1,2 C 97 % 1020,1 hPa 0,0 l/m 2,4 km/h (1 Bft) S 182 0 min 0,000 mm 0,0 UV-I 7 W/m 0,8 C 1,2 C 4,8 km/h (1 Bft) 100,00 %
27.11.2015 08:05 1,2 C 97 % 1020,0 hPa 0,0 l/m 3,4 km/h (1 Bft) S 182 0 min 0,000 mm 0,0 UV-I 9 W/m 0,8 C 1,2 C 4,8 km/h (1 Bft) 100,00 %
27.11.2015 08:10 1,2 C 97 % 1020,1 hPa 0,0 l/m 2,4 km/h (1 Bft) S 182 0 min 0,000 mm 0,0 UV-I 9 W/m 0,8 C 1,2 C 4,8 km/h (1 Bft) 100,00 %
27.11.2015 08:15 1,2 C 97 % 1020,1 hPa 0,0 l/m 3,4 km/h (1 Bft) S-SW 199 0 min 0,000 mm 0,0 UV-I 11 W/m 0,8 C 1,2 C 6,4 km/h (2 Bft) 100,00 %
27.11.2015 08:20 1,2 C 97 % 1020,1 hPa 0,0 l/m 1,7 km/h (1 Bft) S-SW 199 0 min 0,000 mm 0,0 UV-I 11 W/m 0,8 C 1,2 C 3,2 km/h (1 Bft) 97,52 %
27.11.2015 08:25 1,3 C 97 % 1020,1 hPa 0,0 l/m 0,0 km/h (0 Bft) S-SW 199 0 min 0,000 mm 0,0 UV-I 13 W/m 0,9 C 1,3 C 1,6 km/h (1 Bft) 100,00 %
27.11.2015 08:30 1,3 C 97 % 1020,2 hPa 0,0 l/m 0,4 km/h (0 Bft) S-SW 199 0 min 0,000 mm 0,0 UV-I 15 W/m 0,9 C 1,3 C 3,2 km/h (1 Bft) 99,11 %
27.11.2015 08:35 1,3 C 97 % 1020,1 hPa 0,0 l/m 2,4 km/h (1 Bft) S-SW 199 0 min 0,000 mm 0,0 UV-I 17 W/m 0,9 C 1,3 C 4,8 km/h (1 Bft) 100,00 %
27.11.2015 08:40 1,3 C 97 % 1020,1 hPa 0,0 l/m 1,4 km/h (1 Bft) S-SW 199 0 min 0,000 mm 0,0 UV-I 20 W/m 0,9 C 1,3 C 3,2 km/h (1 Bft) 100,00 %
27.11.2015 08:45 1,4 C 97 % 1020,1 hPa 0,0 l/m 0,1 km/h (0 Bft) S-SW 199 0 min 0,000 mm 0,0 UV-I 22 W/m 1,0 C 1,4 C 1,6 km/h (1 Bft) 99,06 %
27.11.2015 08:50 1,4 C 97 % 1020,0 hPa 0,0 l/m 2,9 km/h (1 Bft) S-SW 199 0 min 0,000 mm 0,0 UV-I 25 W/m 1,0 C 1,4 C 4,8 km/h (1 Bft) 99,19 %
27.11.2015 08:55 1,5 C 97 % 1020,0 hPa 0,0 l/m 2,1 km/h (1 Bft) S-SW 211 0 min 0,000 mm 0,0 UV-I 29 W/m 1,1 C 1,5 C 4,8 km/h (1 Bft) 99,15 %
27.11.2015 09:00 1,5 C 97 % 1020,0 hPa 0,0 l/m 0,8 km/h (0 Bft) SW 217 0 min 0,000 mm 0,0 UV-I 31 W/m 1,1 C 1,5 C 3,2 km/h (1 Bft) 99,19 %
27.11.2015 09:05 1,5 C 97 % 1020,0 hPa 0,0 l/m 0,8 km/h (0 Bft) SW 217 0 min 0,000 mm 0,0 UV-I 34 W/m 1,1 C 1,5 C 3,2 km/h (1 Bft) 96,43 %
27.11.2015 09:10 1,6 C 97 % 1020,0 hPa 0,0 l/m 0,4 km/h (0 Bft) SW 217 0 min 0,000 mm 0,0 UV-I 37 W/m 1,2 C 1,6 C 1,6 km/h (1 Bft) 96,69 %
27.11.2015 09:15 1,6 C 97 % 1020,0 hPa 0,0 l/m 1,0 km/h (0 Bft) SW 217 0 min 0,000 mm 0,0 UV-I 41 W/m 1,2 C 1,6 C 3,2 km/h (1 Bft) 97,37 %
27.11.2015 09:20 1,7 C 97 % 1019,9 hPa 0,0 l/m 0,6 km/h (0 Bft) SW 217 0 min 0,000 mm 0,0 UV-I 45 W/m 1,3 C 1,7 C 1,6 km/h (1 Bft) 96,52 %
27.11.2015 09:25 1,7 C 97 % 1019,9 hPa 0,0 l/m 1,6 km/h (1 Bft) S-SW 207 0 min 0,000 mm 0,0 UV-I 48 W/m 1,3 C 1,7 C 4,8 km/h (1 Bft) 95,87 %
27.11.2015 09:30 1,8 C 96 % 1019,9 hPa 0,0 l/m 1,1 km/h (1 Bft) S-SW 207 0 min 0,000 mm 0,0 UV-I 52 W/m 1,2 C 1,8 C 3,2 km/h (1 Bft) 95,73 %
27.11.2015 09:35 1,8 C 97 % 1019,9 hPa 0,0 l/m 1,9 km/h (1 Bft) S-SW 207 0 min 0,000 mm 0,0 UV-I 55 W/m 1,4 C 1,8 C 3,2 km/h (1 Bft) 97,39 %
27.11.2015 09:40 1,9 C 97 % 1019,9 hPa 0,0 l/m 1,4 km/h (1 Bft) S-SW 207 0 min 0,000 mm 0,0 UV-I 58 W/m 1,5 C 1,9 C 4,8 km/h (1 Bft) 99,17 %
27.11.2015 09:45 1,9 C 96 % 1019,9 hPa 0,0 l/m 2,7 km/h (1 Bft) S-SW 207 0 min 0,000 mm 0,0 UV-I 65 W/m 1,3 C 1,9 C 4,8 km/h (1 Bft) 98,17 %
27.11.2015 09:50 2,1 C 96 % 1019,9 hPa 0,0 l/m 0,9 km/h (0 Bft) S-SW 207 0 min 0,000 mm 0,0 UV-I 68 W/m 1,5 C 2,1 C 3,2 km/h (1 Bft) 100,00 %
27.11.2015 09:55 2,1 C 96 % 1019,9 hPa 0,0 l/m 1,4 km/h (1 Bft) S-SW 207 0 min 0,000 mm 0,0 UV-I 70 W/m 1,5 C 2,1 C 3,2 km/h (1 Bft) 99,10 %
27.11.2015 10:00 2,1 C 96 % 1019,9 hPa 0,0 l/m 0,1 km/h (0 Bft) S-SW 207 0 min 0,025 mm 0,0 UV-I 69 W/m 1,5 C 2,1 C 1,6 km/h (1 Bft) 97,58 %
27.11.2015 10:05 2,1 C 96 % 1020,0 hPa 0,0 l/m 0,2 km/h (0 Bft) S-SW 207 0 min 0,000 mm 0,0 UV-I 71 W/m 1,5 C 2,1 C 1,6 km/h (1 Bft) 100,00 %
27.11.2015 10:10 2,2 C 96 % 1020,0 hPa 0,0 l/m 0,3 km/h (0 Bft) S-SW 207 0 min 0,000 mm 0,0 UV-I 74 W/m 1,6 C 2,2 C 1,6 km/h (1 Bft) 99,17 %
27.11.2015 10:15 2,2 C 96 % 1020,0 hPa 0,0 l/m 0,9 km/h (0 Bft) SW 215 0 min 0,000 mm 0,0 UV-I 76 W/m 1,6 C 2,2 C 3,2 km/h (1 Bft) 100,00 %
27.11.2015 10:20 2,2 C 96 % 1020,0 hPa 0,0 l/m 0,5 km/h (0 Bft) SW 215 0 min 0,000 mm 0,0 UV-I 83 W/m 1,6 C 2,2 C 1,6 km/h (1 Bft) 99,13 %
27.11.2015 10:25 2,3 C 96 % 1019,9 hPa 0,0 l/m 0,3 km/h (0 Bft) SW 215 0 min 0,000 mm 0,0 UV-I 81 W/m 1,7 C 2,3 C 1,6 km/h (1 Bft) 100,00 %
27.11.2015 10:30 2,3 C 95 % 1019,9 hPa 0,0 l/m 0,4 km/h (0 Bft) SW 215 0 min 0,000 mm 0,0 UV-I 76 W/m 1,6 C 2,3 C 3,2 km/h (1 Bft) 99,19 %
27.11.2015 10:35 2,3 C 95 % 1019,8 hPa 0,0 l/m 0,4 km/h (0 Bft) SW 215 0 min 0,000 mm 0,0 UV-I 88 W/m 1,6 C 2,3 C 3,2 km/h (1 Bft) 97,44 %
27.11.2015 10:40 2,4 C 95 % 1019,8 hPa 0,0 l/m 0,0 km/h (0 Bft) SW 215 0 min 0,000 mm 0,0 UV-I 92 W/m 1,7 C 2,4 C 1,6 km/h (1 Bft) 100,00 %
27.11.2015 10:45 2,4 C 95 % 1019,7 hPa 0,0 l/m 0,0 km/h (0 Bft) SW 215 0 min 0,000 mm 0,0 UV-I 86 W/m 1,7 C 2,4 C 1,6 km/h (1 Bft) 98,35 %
27.11.2015 10:50 2,4 C 94 % 1019,6 hPa 0,0 l/m 0,0 km/h (0 Bft) SW 215 0 min 0,000 mm 0,0 UV-I 87 W/m 1,5 C 2,4 C 1,6 km/h (1 Bft) 100,00 %
27.11.2015 10:55 2,6 C 94 % 1019,6 hPa 0,0 l/m 0,0 km/h (0 Bft) SW 215 0 min 0,000 mm 0,0 UV-I 89 W/m 1,7 C 2,6 C 1,6 km/h (1 Bft) 100,00 %
27.11.2015 11:00 2,6 C 95 % 1019,5 hPa 0,0 l/m 1,0 km/h (0 Bft) NO 45 0 min 0,026 mm 0,0 UV-I 91 W/m 1,9 C 2,6 C 4,8 km/h (1 Bft) 98,29 %
27.11.2015 11:05 2,7 C 94 % 1019,5 hPa 0,0 l/m 0,9 km/h (0 Bft) NO 45 0 min 0,000 mm 0,0 UV-I 103 W/m 1,8 C 2,7 C 3,2 km/h (1 Bft) 97,52 %
27.11.2015 11:10 2,7 C 94 % 1019,4 hPa 0,0 l/m 1,3 km/h (1 Bft) NO 45 0 min 0,000 mm 0,0 UV-I 105 W/m 1,8 C 2,7 C 3,2 km/h (1 Bft) 96,43 %
27.11.2015 11:15 2,8 C 94 % 1019,4 hPa 0,0 l/m 1,7 km/h (1 Bft) N-NO 15 0 min 0,000 mm 0,0 UV-I 104 W/m 1,9 C 2,8 C 4,8 km/h (1 Bft) 97,50 %
27.11.2015 11:20 2,8 C 93 % 1019,4 hPa 0,0 l/m 0,5 km/h (0 Bft) N-NO 15 0 min 0,000 mm 0,0 UV-I 113 W/m 1,8 C 2,8 C 3,2 km/h (1 Bft) 97,39 %
27.11.2015 11:25 2,8 C 93 % 1019,4 hPa 0,0 l/m 1,0 km/h (0 Bft) N-NO 25 0 min 0,000 mm 0,0 UV-I 111 W/m 1,8 C 2,8 C 3,2 km/h (1 Bft) 96,69 %
27.11.2015 11:30 2,9 C 93 % 1019,3 hPa 0,0 l/m 2,4 km/h (1 Bft) N-NO 24 0 min 0,000 mm 0,0 UV-I 112 W/m 1,9 C 2,9 C 4,8 km/h (1 Bft) 96,58 %
27.11.2015 11:35 2,8 C 92 % 1019,3 hPa 0,0 l/m 0,1 km/h (0 Bft) N-NO 24 0 min 0,000 mm 0,0 UV-I 98 W/m 1,6 C 2,8 C 1,6 km/h (1 Bft) 98,17 %
27.11.2015 11:40 2,8 C 93 % 1019,3 hPa 0,0 l/m 1,0 km/h (0 Bft) NO 55 0 min 0,000 mm 0,0 UV-I 90 W/m 1,8 C 2,8 C 4,8 km/h (1 Bft) 96,75 %
27.11.2015 11:45 2,8 C 92 % 1019,3 hPa 0,0 l/m 2,7 km/h (1 Bft) O-NO 74 0 min 0,000 mm 0,0 UV-I 93 W/m 1,6 C 2,8 C 4,8 km/h (1 Bft) 99,13 %
27.11.2015 11:50 2,8 C 93 % 1019,2 hPa 0,0 l/m 1,1 km/h (1 Bft) O-NO 74 0 min 0,000 mm 0,0 UV-I 86 W/m 1,8 C 2,8 C 3,2 km/h (1 Bft) 96,61 %
27.11.2015 11:55 2,9 C 93 % 1019,2 hPa 0,0 l/m 2,8 km/h (1 Bft) O-NO 76 0 min 0,000 mm 0,0 UV-I 89 W/m 1,9 C 2,9 C 4,8 km/h (1 Bft) 98,20 %
27.11.2015 12:00 2,9 C 92 % 1019,1 hPa 0,0 l/m 3,2 km/h (1 Bft) NO 53 0 min 0,025 mm 0,0 UV-I 97 W/m 1,7 C 2,9 C 4,8 km/h (1 Bft) 98,43 %
27.11.2015 12:05 2,9 C 93 % 1019,1 hPa 0,0 l/m 2,9 km/h (1 Bft) SO 130 0 min 0,000 mm 0,0 UV-I 104 W/m 1,9 C 2,9 C 6,4 km/h (2 Bft) 99,11 %
27.11.2015 12:10 3,0 C 92 % 1019,0 hPa 0,0 l/m 3,9 km/h (1 Bft) O 80 0 min 0,000 mm 0,0 UV-I 113 W/m 1,8 C 3,0 C 6,4 km/h (2 Bft) 100,00 %
27.11.2015 12:15 2,9 C 92 % 1018,9 hPa 0,0 l/m 4,8 km/h (1 Bft) O-NO 69 0 min 0,000 mm 0,0 UV-I 119 W/m 1,7 C 2,9 C 8,0 km/h (2 Bft) 100,00 %
27.11.2015 12:20 3,0 C 92 % 1018,8 hPa 0,0 l/m 3,7 km/h (1 Bft) SO 130 0 min 0,000 mm 0,0 UV-I 124 W/m 1,8 C 3,0 C 8,0 km/h (2 Bft) 100,00 %
27.11.2015 12:25 3,0 C 93 % 1018,8 hPa 0,0 l/m 4,0 km/h (1 Bft) O 84 0 min 0,000 mm 0,0 UV-I 130 W/m 2,0 C 3,0 C 6,4 km/h (2 Bft) 99,12 %
27.11.2015 12:30 3,1 C 91 % 1018,7 hPa 0,0 l/m 3,8 km/h (1 Bft) O 88 0 min 0,000 mm 0,0 UV-I 123 W/m 1,8 C 3,1 C 8,0 km/h (2 Bft) 99,19 %
27.11.2015 12:35 3,1 C 90 % 1018,6 hPa 0,0 l/m 3,7 km/h (1 Bft) O-NO 78 0 min 0,000 mm 0,0 UV-I 123 W/m 1,6 C 3,1 C 6,4 km/h (2 Bft) 100,00 %
27.11.2015 12:40 3,1 C 90 % 1018,5 hPa 0,0 l/m 3,8 km/h (1 Bft) O-NO 63 0 min 0,000 mm 0,0 UV-I 128 W/m 1,6 C 3,1 C 8,0 km/h (2 Bft) 99,19 %
27.11.2015 12:45 3,2 C 89 % 1018,5 hPa 0,0 l/m 3,5 km/h (1 Bft) O-SO 123 0 min 0,000 mm 0,0 UV-I 130 W/m 1,6 C 3,2 C 8,0 km/h (2 Bft) 99,11 %
27.11.2015 12:50 3,3 C 90 % 1018,5 hPa 0,0 l/m 3,5 km/h (1 Bft) O-SO 123 0 min 0,000 mm 0,0 UV-I 130 W/m 1,8 C 3,3 C 6,4 km/h (2 Bft) 97,50 %
27.11.2015 12:55 3,3 C 90 % 1018,4 hPa 0,0 l/m 3,0 km/h (1 Bft) O-NO 74 0 min 0,000 mm 0,0 UV-I 130 W/m 1,8 C 3,3 C 6,4 km/h (2 Bft) 97,32 %
27.11.2015 13:00 3,3 C 88 % 1018,4 hPa 0,0 l/m 3,3 km/h (1 Bft) O-NO 71 0 min 0,051 mm 0,0 UV-I 128 W/m 1,5 C 3,3 C 6,4 km/h (2 Bft) 100,00 %
27.11.2015 13:05 3,3 C 87 % 1018,3 hPa 0,0 l/m 4,7 km/h (1 Bft) O 89 0 min 0,000 mm 0,0 UV-I 121 W/m 1,3 C 3,3 C 11,3 km/h (2 Bft) 99,19 %
27.11.2015 13:10 3,3 C 86 % 1018,2 hPa 0,0 l/m 5,3 km/h (1 Bft) O 82 0 min 0,000 mm 0,0 UV-I 122 W/m 1,2 C 3,3 C 8,0 km/h (2 Bft) 100,00 %
27.11.2015 13:15 3,3 C 84 % 1018,1 hPa 0,0 l/m 5,2 km/h (1 Bft) O 88 0 min 0,000 mm 0,0 UV-I 98 W/m 0,9 C 3,3 C 11,3 km/h (2 Bft) 96,49 %
27.11.2015 13:20 3,3 C 85 % 1018,0 hPa 0,0 l/m 3,2 km/h (1 Bft) O-NO 76 0 min 0,000 mm 0,0 UV-I 84 W/m 1,0 C 3,3 C 6,4 km/h (2 Bft) 97,52 %
27.11.2015 13:25 3,3 C 84 % 1017,9 hPa 0,0 l/m 3,6 km/h (1 Bft) O 84 0 min 0,000 mm 0,0 UV-I 83 W/m 0,9 C 3,3 C 6,4 km/h (2 Bft) 96,61 %
27.11.2015 13:30 3,3 C 84 % 1017,9 hPa 0,0 l/m 4,8 km/h (1 Bft) O 84 0 min 0,000 mm 0,0 UV-I 81 W/m 0,9 C 3,3 C 9,7 km/h (2 Bft) 97,94 %
27.11.2015 13:35 3,3 C 83 % 1017,8 hPa 0,0 l/m 2,6 km/h (1 Bft) O 86 0 min 0,000 mm 0,0 UV-I 85 W/m 0,7 C 3,3 C 6,4 km/h (2 Bft) 97,83 %
27.11.2015 13:40 3,3 C 84 % 1017,8 hPa 0,0 l/m 3,4 km/h (1 Bft) O 79 0 min 0,000 mm 0,0 UV-I 92 W/m 0,9 C 3,3 C 6,4 km/h (2 Bft) 97,37 %
27.11.2015 13:45 3,4 C 82 % 1017,7 hPa 0,0 l/m 5,7 km/h (1 Bft) O 86 0 min 0,000 mm 0,0 UV-I 96 W/m 0,6 C 3,4 C 9,7 km/h (2 Bft) 97,25 %
27.11.2015 13:50 3,4 C 81 % 1017,7 hPa 0,0 l/m 4,6 km/h (1 Bft) NO 53 0 min 0,000 mm 0,0 UV-I 98 W/m 0,5 C 3,4 C 8,0 km/h (2 Bft) 98,31 %
27.11.2015 13:55 3,4 C 82 % 1017,6 hPa 0,0 l/m 3,8 km/h (1 Bft) O-NO 73 0 min 0,000 mm 0,0 UV-I 92 W/m 0,6 C 3,4 C 6,4 km/h (2 Bft) 97,25 %
27.11.2015 14:00 3,5 C 82 % 1017,6 hPa 0,0 l/m 5,8 km/h (2 Bft) NO 50 0 min 0,051 mm 0,0 UV-I 95 W/m 0,7 C 3,5 C 11,3 km/h (2 Bft) 99,22 %
27.11.2015 14:05 3,5 C 84 % 1017,4 hPa 0,0 l/m 4,5 km/h (1 Bft) O 81 0 min 0,000 mm 0,0 UV-I 101 W/m 1,1 C 3,5 C 9,7 km/h (2 Bft) 100,00 %
27.11.2015 14:10 3,4 C 83 % 1017,4 hPa 0,0 l/m 3,4 km/h (1 Bft) O 83 0 min 0,000 mm 0,0 UV-I 101 W/m 0,8 C 3,4 C 6,4 km/h (2 Bft) 98,25 %
27.11.2015 14:15 3,4 C 83 % 1017,4 hPa 0,0 l/m 4,0 km/h (1 Bft) O-NO 72 0 min 0,000 mm 0,0 UV-I 93 W/m 0,8 C 3,4 C 8,0 km/h (2 Bft) 98,35 %
27.11.2015 14:20 3,5 C 83 % 1017,3 hPa 0,0 l/m 3,9 km/h (1 Bft) O-NO 63 0 min 0,000 mm 0,0 UV-I 84 W/m 0,9 C 3,5 C 8,0 km/h (2 Bft) 99,08 %
27.11.2015 14:25 3,5 C 84 % 1017,3 hPa 0,0 l/m 3,8 km/h (1 Bft) O 92 0 min 0,000 mm 0,0 UV-I 76 W/m 1,1 C 3,5 C 8,0 km/h (2 Bft) 98,41 %
27.11.2015 14:30 3,4 C 83 % 1017,2 hPa 0,0 l/m 3,8 km/h (1 Bft) NO 47 0 min 0,000 mm 0,0 UV-I 74 W/m 0,8 C 3,4 C 6,4 km/h (2 Bft) 97,39 %
27.11.2015 14:35 3,4 C 81 % 1017,2 hPa 0,0 l/m 5,5 km/h (1 Bft) O-NO 65 0 min 0,000 mm 0,0 UV-I 71 W/m 0,5 C 3,4 C 8,0 km/h (2 Bft) 99,10 %
27.11.2015 14:40 3,4 C 81 % 1017,1 hPa 0,0 l/m 5,6 km/h (1 Bft) O-NO 58 0 min 0,000 mm 0,0 UV-I 66 W/m 0,5 C 3,4 C 8,0 km/h (2 Bft) 98,26 %
27.11.2015 14:45 3,4 C 83 % 1017,2 hPa 0,0 l/m 5,8 km/h (2 Bft) O-NO 66 0 min 0,000 mm 0,0 UV-I 57 W/m 0,8 C 3,4 C 11,3 km/h (2 Bft) 99,15 %
27.11.2015 14:50 3,4 C 80 % 1017,1 hPa 0,0 l/m 5,5 km/h (1 Bft) O 79 0 min 0,000 mm 0,0 UV-I 50 W/m 0,3 C 3,4 C 9,7 km/h (2 Bft) 100,00 %
27.11.2015 14:55 3,2 C 82 % 1017,1 hPa 0,0 l/m 4,6 km/h (1 Bft) O 94 0 min 0,000 mm 0,0 UV-I 46 W/m 0,4 C 3,2 C 6,4 km/h (2 Bft) 98,39 %
27.11.2015 15:00 3,2 C 83 % 1017,1 hPa 0,0 l/m 4,4 km/h (1 Bft) O-NO 75 0 min 0,025 mm 0,0 UV-I 37 W/m 0,6 C 3,2 C 11,3 km/h (2 Bft) 99,11 %
27.11.2015 15:05 3,2 C 84 % 1017,1 hPa 0,0 l/m 4,9 km/h (1 Bft) O-NO 59 0 min 0,000 mm 0,0 UV-I 31 W/m 0,8 C 3,2 C 8,0 km/h (2 Bft) 100,00 %
27.11.2015 15:10 3,1 C 84 % 1017,0 hPa 0,0 l/m 4,5 km/h (1 Bft) O-NO 69 0 min 0,000 mm 0,0 UV-I 27 W/m 0,7 C 3,1 C 6,4 km/h (2 Bft) 100,00 %
27.11.2015 15:15 3,0 C 84 % 1017,0 hPa 0,0 l/m 4,6 km/h (1 Bft) O-NO 74 0 min 0,000 mm 0,0 UV-I 25 W/m 0,6 C 3,0 C 9,7 km/h (2 Bft) 99,08 %
27.11.2015 15:20 3,1 C 84 % 1017,0 hPa 0,0 l/m 7,1 km/h (2 Bft) O 94 0 min 0,000 mm 0,0 UV-I 20 W/m 0,7 C 2,4 C 14,5 km/h (3 Bft) 96,67 %
27.11.2015 15:25 2,9 C 85 % 1017,0 hPa 0,0 l/m 4,4 km/h (1 Bft) O-NO 67 0 min 0,000 mm 0,0 UV-I 17 W/m 0,6 C 2,9 C 8,0 km/h (2 Bft) 98,26 %
27.11.2015 15:30 3,0 C 84 % 1017,0 hPa 0,0 l/m 6,4 km/h (2 Bft) NO 49 0 min 0,000 mm 0,0 UV-I 13 W/m 0,6 C 3,0 C 9,7 km/h (2 Bft) 96,58 %
27.11.2015 15:35 2,9 C 82 % 1016,9 hPa 0,0 l/m 7,9 km/h (2 Bft) NO 51 0 min 0,000 mm 0,0 UV-I 12 W/m 0,1 C 1,5 C 12,9 km/h (3 Bft) 97,46 %
27.11.2015 15:40 3,0 C 83 % 1017,0 hPa 0,0 l/m 8,3 km/h (2 Bft) O-NO 69 0 min 0,000 mm 0,0 UV-I 11 W/m 0,4 C 1,2 C 14,5 km/h (3 Bft) 96,69 %
27.11.2015 15:45 2,9 C 84 % 1016,9 hPa 0,0 l/m 5,0 km/h (1 Bft) NO 55 0 min 0,000 mm 0,0 UV-I 8 W/m 0,5 C 2,9 C 6,4 km/h (2 Bft) 97,44 %
27.11.2015 15:50 2,8 C 87 % 1016,9 hPa 0,0 l/m 3,6 km/h (1 Bft) O-NO 77 0 min 0,000 mm 0,0 UV-I 5 W/m 0,9 C 2,8 C 6,4 km/h (2 Bft) 94,07 %
27.11.2015 15:55 2,7 C 87 % 1016,8 hPa 0,0 l/m 3,4 km/h (1 Bft) O-NO 76 0 min 0,000 mm 0,0 UV-I 0 W/m 0,8 C 2,7 C 6,4 km/h (2 Bft) 98,17 %
27.11.2015 16:00 2,7 C 87 % 1016,9 hPa 0,0 l/m 4,0 km/h (1 Bft) O 100 0 min 0,026 mm 0,0 UV-I 0 W/m 0,8 C 2,7 C 6,4 km/h (2 Bft) 98,37 %
27.11.2015 16:05 2,6 C 86 % 1016,8 hPa 0,0 l/m 4,1 km/h (1 Bft) O 91 0 min 0,000 mm 0,0 UV-I 0 W/m 0,5 C 2,6 C 6,4 km/h (2 Bft) 99,15 %
27.11.2015 16:10 2,6 C 85 % 1016,8 hPa 0,0 l/m 4,5 km/h (1 Bft) O 91 0 min 0,000 mm 0,0 UV-I 0 W/m 0,3 C 2,6 C 6,4 km/h (2 Bft) 98,25 %
27.11.2015 16:15 2,6 C 86 % 1016,8 hPa 0,0 l/m 4,3 km/h (1 Bft) O 82 0 min 0,000 mm 0,0 UV-I 0 W/m 0,5 C 2,6 C 8,0 km/h (2 Bft) 100,00 %
27.11.2015 16:20 2,6 C 85 % 1016,7 hPa 0,0 l/m 3,1 km/h (1 Bft) O-NO 73 0 min 0,000 mm 0,0 UV-I 0 W/m 0,3 C 2,6 C 6,4 km/h (2 Bft) 100,00 %
27.11.2015 16:25 2,5 C 86 % 1016,6 hPa 0,0 l/m 2,1 km/h (1 Bft) O-NO 73 0 min 0,000 mm 0,0 UV-I 0 W/m 0,4 C 2,5 C 3,2 km/h (1 Bft) 99,17 %
27.11.2015 16:30 2,3 C 88 % 1016,6 hPa 0,0 l/m 1,6 km/h (1 Bft) O-NO 73 0 min 0,000 mm 0,0 UV-I 0 W/m 0,5 C 2,3 C 3,2 km/h (1 Bft) 100,00 %
27.11.2015 16:35 2,1 C 90 % 1016,7 hPa 0,0 l/m 1,7 km/h (1 Bft) O-NO 73 0 min 0,000 mm 0,0 UV-I 0 W/m 0,6 C 2,1 C 3,2 km/h (1 Bft) 98,29 %
27.11.2015 16:40 1,9 C 92 % 1016,6 hPa 0,0 l/m 1,6 km/h (1 Bft) O-NO 73 0 min 0,000 mm 0,0 UV-I 0 W/m 0,7 C 1,9 C 3,2 km/h (1 Bft) 99,13 %
27.11.2015 16:45 1,9 C 92 % 1016,6 hPa 0,0 l/m 1,6 km/h (1 Bft) O-NO 67 0 min 0,000 mm 0,0 UV-I 0 W/m 0,7 C 1,9 C 3,2 km/h (1 Bft) 100,00 %
27.11.2015 16:50 1,9 C 92 % 1016,6 hPa 0,0 l/m 1,6 km/h (1 Bft) O-NO 67 0 min 0,000 mm 0,0 UV-I 0 W/m 0,7 C 1,9 C 3,2 km/h (1 Bft) 100,00 %
27.11.2015 16:55 1,8 C 93 % 1016,6 hPa 0,0 l/m 2,1 km/h (1 Bft) O-NO 73 0 min 0,000 mm 0,0 UV-I 0 W/m 0,8 C 1,8 C 3,2 km/h (1 Bft) 99,12 %
27.11.2015 17:00 1,8 C 93 % 1016,5 hPa 0,0 l/m 1,7 km/h (1 Bft) O-NO 73 0 min 0,000 mm 0,0 UV-I 0 W/m 0,8 C 1,8 C 3,2 km/h (1 Bft) 99,19 %
27.11.2015 17:05 1,9 C 93 % 1016,5 hPa 0,0 l/m 1,6 km/h (1 Bft) O-NO 67 0 min 0,000 mm 0,0 UV-I 0 W/m 0,9 C 1,9 C 3,2 km/h (1 Bft) 98,25 %
27.11.2015 17:10 1,9 C 93 % 1016,5 hPa 0,0 l/m 2,4 km/h (1 Bft) O 83 0 min 0,000 mm 0,0 UV-I 0 W/m 0,9 C 1,9 C 3,2 km/h (1 Bft) 100,00 %
27.11.2015 17:15 1,8 C 93 % 1016,6 hPa 0,0 l/m 2,6 km/h (1 Bft) O 84 0 min 0,000 mm 0,0 UV-I 0 W/m 0,8 C 1,8 C 4,8 km/h (1 Bft) 100,00 %
27.11.2015 17:20 1,8 C 93 % 1016,5 hPa 0,0 l/m 2,7 km/h (1 Bft) O 84 0 min 0,000 mm 0,0 UV-I 0 W/m 0,8 C 1,8 C 4,8 km/h (1 Bft) 99,10 %
27.11.2015 17:25 1,9 C 93 % 1016,5 hPa 0,0 l/m 2,8 km/h (1 Bft) O 84 0 min 0,000 mm 0,0 UV-I 0 W/m 0,9 C 1,9 C 4,8 km/h (1 Bft) 99,13 %
27.11.2015 17:30 1,9 C 93 % 1016,4 hPa 0,0 l/m 1,6 km/h (1 Bft) O-SO 117 0 min 0,000 mm 0,0 UV-I 0 W/m 0,9 C 1,9 C 4,8 km/h (1 Bft) 96,85 %
27.11.2015 17:35 2,0 C 93 % 1016,4 hPa 0,0 l/m 1,0 km/h (0 Bft) O-SO 117 0 min 0,000 mm 0,0 UV-I 0 W/m 1,0 C 2,0 C 3,2 km/h (1 Bft) 96,61 %
27.11.2015 17:40 2,0 C 93 % 1016,4 hPa 0,0 l/m 0,7 km/h (0 Bft) O-SO 117 0 min 0,000 mm 0,0 UV-I 0 W/m 1,0 C 2,0 C 3,2 km/h (1 Bft) 95,50 %
27.11.2015 17:45 2,0 C 93 % 1016,3 hPa 0,0 l/m 1,0 km/h (0 Bft) O-SO 117 0 min 0,000 mm 0,0 UV-I 0 W/m 1,0 C 2,0 C 1,6 km/h (1 Bft) 97,39 %
27.11.2015 17:50 1,9 C 94 % 1016,2 hPa 0,0 l/m 0,3 km/h (0 Bft) O-SO 117 0 min 0,000 mm 0,0 UV-I 0 W/m 1,0 C 1,9 C 1,6 km/h (1 Bft) 97,39 %
27.11.2015 17:55 1,9 C 94 % 1016,2 hPa 0,0 l/m 0,4 km/h (0 Bft) O-SO 117 0 min 0,000 mm 0,0 UV-I 0 W/m 1,0 C 1,9 C 3,2 km/h (1 Bft) 96,49 %
27.11.2015 18:00 1,8 C 94 % 1016,2 hPa 0,0 l/m 1,5 km/h (1 Bft) O-SO 117 0 min 0,000 mm 0,0 UV-I 0 W/m 0,9 C 1,8 C 3,2 km/h (1 Bft) 98,35 %
27.11.2015 18:05 1,8 C 94 % 1016,2 hPa 0,0 l/m 1,6 km/h (1 Bft) O-SO 117 0 min 0,000 mm 0,0 UV-I 0 W/m 0,9 C 1,8 C 3,2 km/h (1 Bft) 99,17 %
27.11.2015 18:10 1,8 C 94 % 1016,2 hPa 0,0 l/m 2,1 km/h (1 Bft) O-SO 117 0 min 0,000 mm 0,0 UV-I 0 W/m 0,9 C 1,8 C 4,8 km/h (1 Bft) 98,25 %
27.11.2015 18:15 1,7 C 94 % 1016,2 hPa 0,0 l/m 3,2 km/h (1 Bft) O-SO 112 0 min 0,000 mm 0,0 UV-I 0 W/m 0,8 C 1,7 C 4,8 km/h (1 Bft) 97,37 %
27.11.2015 18:20 1,7 C 94 % 1016,1 hPa 0,0 l/m 3,2 km/h (1 Bft) SO 135 0 min 0,000 mm 0,0 UV-I 0 W/m 0,8 C 1,7 C 4,8 km/h (1 Bft) 97,37 %
27.11.2015 18:25 1,8 C 94 % 1016,1 hPa 0,0 l/m 2,8 km/h (1 Bft) SO 132 0 min 0,000 mm 0,0 UV-I 0 W/m 0,9 C 1,8 C 4,8 km/h (1 Bft) 98,36 %
27.11.2015 18:30 1,8 C 94 % 1016,1 hPa 0,0 l/m 3,0 km/h (1 Bft) SO 140 0 min 0,000 mm 0,0 UV-I 0 W/m 0,9 C 1,8 C 6,4 km/h (2 Bft) 98,39 %
27.11.2015 18:35 1,8 C 93 % 1016,1 hPa 0,0 l/m 2,9 km/h (1 Bft) SO 134 0 min 0,000 mm 0,0 UV-I 0 W/m 0,8 C 1,8 C 4,8 km/h (1 Bft) 97,50 %
27.11.2015 18:40 1,9 C 93 % 1016,1 hPa 0,0 l/m 3,5 km/h (1 Bft) SO 134 0 min 0,000 mm 0,0 UV-I 0 W/m 0,9 C 1,9 C 4,8 km/h (1 Bft) 98,31 %
27.11.2015 18:45 1,8 C 93 % 1016,0 hPa 0,0 l/m 3,3 km/h (1 Bft) O-SO 107 0 min 0,000 mm 0,0 UV-I 0 W/m 0,8 C 1,8 C 6,4 km/h (2 Bft) 99,08 %
27.11.2015 18:50 1,9 C 92 % 1015,9 hPa 0,0 l/m 3,6 km/h (1 Bft) O-SO 107 0 min 0,000 mm 0,0 UV-I 0 W/m 0,7 C 1,9 C 4,8 km/h (1 Bft) 98,25 %
27.11.2015 18:55 1,9 C 92 % 1015,9 hPa 0,0 l/m 2,9 km/h (1 Bft) O-SO 107 0 min 0,000 mm 0,0 UV-I 0 W/m 0,7 C 1,9 C 4,8 km/h (1 Bft) 98,39 %
27.11.2015 19:00 1,8 C 92 % 1015,9 hPa 0,0 l/m 3,6 km/h (1 Bft) O-SO 108 0 min 0,000 mm 0,0 UV-I 0 W/m 0,6 C 1,8 C 6,4 km/h (2 Bft) 100,00 %
27.11.2015 19:05 1,8 C 92 % 1015,9 hPa 0,0 l/m 3,4 km/h (1 Bft) O 94 0 min 0,000 mm 0,0 UV-I 0 W/m 0,6 C 1,8 C 4,8 km/h (1 Bft) 98,31 %
27.11.2015 19:10 1,8 C 92 % 1015,9 hPa 0,0 l/m 3,1 km/h (1 Bft) O 94 0 min 0,000 mm 0,0 UV-I 0 W/m 0,6 C 1,8 C 4,8 km/h (1 Bft) 100,00 %
27.11.2015 19:15 1,9 C 92 % 1015,9 hPa 0,0 l/m 3,1 km/h (1 Bft) O-SO 111 0 min 0,000 mm 0,0 UV-I 0 W/m 0,7 C 1,9 C 4,8 km/h (1 Bft) 100,00 %
27.11.2015 19:20 1,9 C 92 % 1015,8 hPa 0,0 l/m 3,3 km/h (1 Bft) O-SO 103 0 min 0,000 mm 0,0 UV-I 0 W/m 0,7 C 1,9 C 6,4 km/h (2 Bft) 99,06 %
27.11.2015 19:25 1,9 C 92 % 1015,8 hPa 0,0 l/m 2,4 km/h (1 Bft) O-SO 104 0 min 0,000 mm 0,0 UV-I 0 W/m 0,7 C 1,9 C 4,8 km/h (1 Bft) 99,19 %
27.11.2015 19:30 1,8 C 92 % 1015,8 hPa 0,0 l/m 1,7 km/h (1 Bft) O-SO 104 0 min 0,000 mm 0,0 UV-I 0 W/m 0,6 C 1,8 C 3,2 km/h (1 Bft) 98,25 %
27.11.2015 19:35 1,8 C 93 % 1015,7 hPa 0,0 l/m 0,6 km/h (0 Bft) O-SO 104 0 min 0,000 mm 0,0 UV-I 0 W/m 0,8 C 1,8 C 3,2 km/h (1 Bft) 97,52 %
27.11.2015 19:40 1,7 C 93 % 1015,7 hPa 0,0 l/m 0,8 km/h (0 Bft) O-SO 104 0 min 0,000 mm 0,0 UV-I 0 W/m 0,7 C 1,7 C 1,6 km/h (1 Bft) 96,75 %
27.11.2015 19:45 1,7 C 94 % 1015,7 hPa 0,0 l/m 0,5 km/h (0 Bft) O-SO 104 0 min 0,000 mm 0,0 UV-I 0 W/m 0,8 C 1,7 C 1,6 km/h (1 Bft) 97,17 %
27.11.2015 19:50 1,7 C 94 % 1015,6 hPa 0,0 l/m 0,0 km/h (0 Bft) O-SO 104 0 min 0,000 mm 0,0 UV-I 0 W/m 0,8 C 1,7 C 1,6 km/h (1 Bft) 96,69 %
27.11.2015 19:55 1,7 C 94 % 1015,6 hPa 0,0 l/m 0,0 km/h (0 Bft) O-SO 104 0 min 0,000 mm 0,0 UV-I 0 W/m 0,8 C 1,7 C 0,0 km/h (0 Bft) 97,50 %
27.11.2015 20:00 1,6 C 94 % 1015,5 hPa 0,0 l/m 0,0 km/h (0 Bft) O-SO 104 0 min 0,000 mm 0,0 UV-I 0 W/m 0,7 C 1,6 C 0,0 km/h (0 Bft) 94,92 %
27.11.2015 20:05 1,6 C 95 % 1015,5 hPa 0,0 l/m 0,0 km/h (0 Bft) O-SO 104 0 min 0,000 mm 0,0 UV-I 0 W/m 0,9 C 1,6 C 0,0 km/h (0 Bft) 98,21 %
27.11.2015 20:10 1,6 C 94 % 1015,5 hPa 0,0 l/m 0,0 km/h (0 Bft) O-SO 104 0 min 0,000 mm 0,0 UV-I 0 W/m 0,7 C 1,6 C 0,0 km/h (0 Bft) 99,19 %
27.11.2015 20:15 1,6 C 94 % 1015,4 hPa 0,0 l/m 0,0 km/h (0 Bft) O-SO 104 0 min 0,000 mm 0,0 UV-I 0 W/m 0,7 C 1,6 C 0,0 km/h (0 Bft) 99,08 %
27.11.2015 20:20 1,7 C 94 % 1015,4 hPa 0,0 l/m 0,0 km/h (0 Bft) O-SO 104 0 min 0,000 mm 0,0 UV-I 0 W/m 0,8 C 1,7 C 0,0 km/h (0 Bft) 98,41 %
27.11.2015 20:25 1,7 C 95 % 1015,4 hPa 0,0 l/m 0,0 km/h (0 Bft) O-SO 104 0 min 0,000 mm 0,0 UV-I 0 W/m 1,0 C 1,7 C 0,0 km/h (0 Bft) 99,11 %
27.11.2015 20:30 1,6 C 95 % 1015,3 hPa 0,0 l/m 0,0 km/h (0 Bft) O-SO 104 0 min 0,000 mm 0,0 UV-I 0 W/m 0,9 C 1,6 C 0,0 km/h (0 Bft) 97,52 %
27.11.2015 20:35 1,6 C 95 % 1015,3 hPa 0,0 l/m 0,0 km/h (0 Bft) O-SO 104 0 min 0,000 mm 0,0 UV-I 0 W/m 0,9 C 1,6 C 0,0 km/h (0 Bft) 99,15 %
27.11.2015 20:40 1,6 C 95 % 1015,3 hPa 0,0 l/m 0,7 km/h (0 Bft) O-SO 104 0 min 0,000 mm 0,0 UV-I 0 W/m 0,9 C 1,6 C 1,6 km/h (1 Bft) 99,11 %
27.11.2015 20:45 1,5 C 95 % 1015,2 hPa 0,0 l/m 0,1 km/h (0 Bft) O-SO 104 0 min 0,000 mm 0,0 UV-I 0 W/m 0,8 C 1,5 C 1,6 km/h (1 Bft) 96,52 %
27.11.2015 20:50 1,4 C 95 % 1015,2 hPa 0,0 l/m 0,1 km/h (0 Bft) O-SO 104 0 min 0,000 mm 0,0 UV-I 0 W/m 0,7 C 1,4 C 1,6 km/h (1 Bft) 100,00 %
27.11.2015 20:55 1,4 C 96 % 1015,1 hPa 0,0 l/m 1,4 km/h (1 Bft) O-SO 104 0 min 0,000 mm 0,0 UV-I 0 W/m 0,8 C 1,4 C 3,2 km/h (1 Bft) 100,00 %
27.11.2015 21:00 1,6 C 95 % 1015,0 hPa 0,0 l/m 1,7 km/h (1 Bft) O-SO 104 0 min 0,000 mm 0,0 UV-I 0 W/m 0,9 C 1,6 C 3,2 km/h (1 Bft) 98,37 %
27.11.2015 21:05 1,7 C 94 % 1015,1 hPa 0,0 l/m 2,0 km/h (1 Bft) O-SO 104 0 min 0,000 mm 0,0 UV-I 0 W/m 0,8 C 1,7 C 3,2 km/h (1 Bft) 98,26 %
27.11.2015 21:10 1,7 C 94 % 1015,0 hPa 0,0 l/m 1,6 km/h (1 Bft) O-SO 104 0 min 0,000 mm 0,0 UV-I 0 W/m 0,8 C 1,7 C 3,2 km/h (1 Bft) 100,00 %
27.11.2015 21:15 1,6 C 95 % 1015,0 hPa 0,0 l/m 2,0 km/h (1 Bft) O 93 0 min 0,000 mm 0,0 UV-I 0 W/m 0,9 C 1,6 C 3,2 km/h (1 Bft) 100,00 %
27.11.2015 21:20 1,7 C 94 % 1014,9 hPa 0,0 l/m 1,9 km/h (1 Bft) O 92 0 min 0,000 mm 0,0 UV-I 0 W/m 0,8 C 1,7 C 3,2 km/h (1 Bft) 100,00 %
27.11.2015 21:25 1,7 C 94 % 1014,9 hPa 0,0 l/m 1,9 km/h (1 Bft) O 92 0 min 0,000 mm 0,0 UV-I 0 W/m 0,8 C 1,7 C 3,2 km/h (1 Bft) 99,19 %
27.11.2015 21:30 1,7 C 94 % 1014,9 hPa 0,0 l/m 1,0 km/h (0 Bft) O 93 0 min 0,000 mm 0,0 UV-I 0 W/m 0,8 C 1,7 C 3,2 km/h (1 Bft) 95,00 %
27.11.2015 21:35 1,7 C 94 % 1014,8 hPa 0,0 l/m 1,3 km/h (1 Bft) O 92 0 min 0,000 mm 0,0 UV-I 0 W/m 0,8 C 1,7 C 3,2 km/h (1 Bft) 99,19 %
27.11.2015 21:40 1,7 C 94 % 1014,8 hPa 0,0 l/m 1,3 km/h (1 Bft) O 93 0 min 0,000 mm 0,0 UV-I 0 W/m 0,8 C 1,7 C 3,2 km/h (1 Bft) 97,46 %
27.11.2015 21:45 1,7 C 95 % 1014,7 hPa 0,0 l/m 1,8 km/h (1 Bft) O 92 0 min 0,000 mm 0,0 UV-I 0 W/m 1,0 C 1,7 C 3,2 km/h (1 Bft) 97,44 %
27.11.2015 21:50 1,7 C 94 % 1014,7 hPa 0,0 l/m 1,4 km/h (1 Bft) O 92 0 min 0,000 mm 0,0 UV-I 0 W/m 0,8 C 1,7 C 3,2 km/h (1 Bft) 96,85 %
27.11.2015 21:55 1,7 C 94 % 1014,6 hPa 0,0 l/m 0,6 km/h (0 Bft) O 93 0 min 0,000 mm 0,0 UV-I 0 W/m 0,8 C 1,7 C 3,2 km/h (1 Bft) 96,58 %
27.11.2015 22:00 1,6 C 94 % 1014,5 hPa 0,0 l/m 0,0 km/h (0 Bft) O 92 0 min 0,000 mm 0,0 UV-I 0 W/m 0,7 C 1,6 C 1,6 km/h (1 Bft) 96,43 %
27.11.2015 22:05 1,6 C 94 % 1014,5 hPa 0,0 l/m 0,2 km/h (0 Bft) O 93 0 min 0,000 mm 0,0 UV-I 0 W/m 0,7 C 1,6 C 1,6 km/h (1 Bft) 95,00 %
27.11.2015 22:10 1,6 C 95 % 1014,4 hPa 0,0 l/m 0,0 km/h (0 Bft) O 92 0 min 0,000 mm 0,0 UV-I 0 W/m 0,9 C 1,6 C 0,0 km/h (0 Bft) 97,27 %
27.11.2015 22:15 1,5 C 95 % 1014,3 hPa 0,0 l/m 0,1 km/h (0 Bft) O 92 0 min 0,000 mm 0,0 UV-I 0 W/m 0,8 C 1,5 C 1,6 km/h (1 Bft) 99,15 %
27.11.2015 22:20 1,5 C 95 % 1014,3 hPa 0,0 l/m 0,5 km/h (0 Bft) O 92 0 min 0,000 mm 0,0 UV-I 0 W/m 0,8 C 1,5 C 3,2 km/h (1 Bft) 99,15 %
27.11.2015 22:25 1,5 C 95 % 1014,3 hPa 0,0 l/m 1,7 km/h (1 Bft) O 92 0 min 0,000 mm 0,0 UV-I 0 W/m 0,8 C 1,5 C 3,2 km/h (1 Bft) 98,31 %
27.11.2015 22:30 1,6 C 95 % 1014,3 hPa 0,0 l/m 1,3 km/h (1 Bft) O-NO 71 0 min 0,000 mm 0,0 UV-I 0 W/m 0,9 C 1,6 C 3,2 km/h (1 Bft) 100,00 %
27.11.2015 22:35 1,5 C 95 % 1014,2 hPa 0,0 l/m 1,0 km/h (0 Bft) O-NO 71 0 min 0,000 mm 0,0 UV-I 0 W/m 0,8 C 1,5 C 1,6 km/h (1 Bft) 97,44 %
27.11.2015 22:40 1,4 C 95 % 1014,1 hPa 0,0 l/m 1,4 km/h (1 Bft) O-NO 71 0 min 0,000 mm 0,0 UV-I 0 W/m 0,7 C 1,4 C 3,2 km/h (1 Bft) 98,21 %
27.11.2015 22:45 1,4 C 95 % 1014,1 hPa 0,0 l/m 1,8 km/h (1 Bft) O-NO 71 0 min 0,000 mm 0,0 UV-I 0 W/m 0,7 C 1,4 C 3,2 km/h (1 Bft) 99,13 %
27.11.2015 22:50 1,4 C 95 % 1014,0 hPa 0,0 l/m 2,1 km/h (1 Bft) O-NO 69 0 min 0,000 mm 0,0 UV-I 0 W/m 0,7 C 1,4 C 3,2 km/h (1 Bft) 99,17 %
27.11.2015 22:55 1,4 C 95 % 1013,9 hPa 0,0 l/m 1,9 km/h (1 Bft) O-NO 69 0 min 0,000 mm 0,0 UV-I 0 W/m 0,7 C 1,4 C 3,2 km/h (1 Bft) 100,00 %
27.11.2015 23:00 1,4 C 95 % 1014,0 hPa 0,0 l/m 1,4 km/h (1 Bft) O-NO 69 0 min 0,000 mm 0,0 UV-I 0 W/m 0,7 C 1,4 C 3,2 km/h (1 Bft) 99,17 %
27.11.2015 23:05 1,4 C 95 % 1014,0 hPa 0,0 l/m 2,2 km/h (1 Bft) O-NO 69 0 min 0,000 mm 0,0 UV-I 0 W/m 0,7 C 1,4 C 3,2 km/h (1 Bft) 99,19 %
27.11.2015 23:10 1,3 C 95 % 1014,0 hPa 0,0 l/m 1,6 km/h (1 Bft) O-NO 69 0 min 0,000 mm 0,0 UV-I 0 W/m 0,6 C 1,3 C 3,2 km/h (1 Bft) 99,13 %
27.11.2015 23:15 1,3 C 95 % 1014,0 hPa 0,0 l/m 0,9 km/h (0 Bft) O-NO 69 0 min 0,000 mm 0,0 UV-I 0 W/m 0,6 C 1,3 C 3,2 km/h (1 Bft) 98,15 %
27.11.2015 23:20 1,4 C 95 % 1014,0 hPa 0,0 l/m 1,6 km/h (1 Bft) O-NO 69 0 min 0,000 mm 0,0 UV-I 0 W/m 0,7 C 1,4 C 3,2 km/h (1 Bft) 99,19 %
27.11.2015 23:25 1,4 C 95 % 1014,0 hPa 0,0 l/m 1,2 km/h (1 Bft) O-NO 69 0 min 0,000 mm 0,0 UV-I 0 W/m 0,7 C 1,4 C 1,6 km/h (1 Bft) 99,13 %
27.11.2015 23:30 1,3 C 95 % 1014,0 hPa 0,0 l/m 0,7 km/h (0 Bft) O-NO 69 0 min 0,000 mm 0,0 UV-I 0 W/m 0,6 C 1,3 C 1,6 km/h (1 Bft) 100,00 %
27.11.2015 23:35 1,3 C 95 % 1014,0 hPa 0,0 l/m 1,5 km/h (1 Bft) O-NO 69 0 min 0,000 mm 0,0 UV-I 0 W/m 0,6 C 1,3 C 3,2 km/h (1 Bft) 97,64 %
27.11.2015 23:40 1,4 C 95 % 1014,0 hPa 0,0 l/m 1,8 km/h (1 Bft) O-NO 69 0 min 0,000 mm 0,0 UV-I 0 W/m 0,7 C 1,4 C 3,2 km/h (1 Bft) 96,67 %
27.11.2015 23:45 1,3 C 95 % 1013,9 hPa 0,0 l/m 2,1 km/h (1 Bft) O-NO 69 0 min 0,000 mm 0,0 UV-I 0 W/m 0,6 C 1,3 C 3,2 km/h (1 Bft) 97,46 %
27.11.2015 23:50 1,2 C 96 % 1013,9 hPa 0,0 l/m 1,8 km/h (1 Bft) O-NO 69 0 min 0,000 mm 0,0 UV-I 0 W/m 0,6 C 1,2 C 3,2 km/h (1 Bft) 98,26 %
27.11.2015 23:55 1,2 C 96 % 1014,0 hPa 0,0 l/m 1,6 km/h (1 Bft) O-NO 69 0 min 0,000 mm 0,0 UV-I 0 W/m 0,6 C 1,2 C 3,2 km/h (1 Bft) 97,44 %
_ Min-Zeit 05:20 14:50 22:55 - 08:25 - - - - - - 15:35 05:20 19:55 15:50
Minimum _ 1,1 C 80 % 1013,9 hPa - 0,0 km/h (0 Bft) - - - - - - 0,1 C 1,1 C 0,0 km/h (0 Bft) 94,07 %
_ Max-Zeit 14:25 06:15 02:10 00:00 15:40 - - 00:00 13:00 00:00 12:25 12:25 14:00 15:20 00:00
Maximum _ 3,6 C 98 % 1020,7 hPa 0,0 l/m 8,3 km/h
O-NO (2 Bft)
- - 0 min 0,051 mm 0,0 UV-I 130 W/m 2,0 C 3,5 C 14,5 km/h
O-NO (3 Bft)
100,00 %
Durchschnitt _ 2,0 C 93 % 1018,1 hPa #0,0 l/m 2,4 km/h (1 Bft) S-SW - #0 min. #0,229 mm 0,0 UV-I 69 W/m 1,0 C 1,9 C 4,6 km/h (1 Bft) 98,36 %